Location: ??
(34.9513°N, 135.4072°E)
Time: 23:19:15
(UTC+00:00)

Daily predictions for brighter satellites

Satellite Brightness Start Highest point End
(mag) Time Altitude Azimuth Time Altitude Azimuth Time Altitude Azimuth
ALOS 3.9 18:53:33 10° NNE 18:56:06 29° NE 18:56:06 29° NE
BREEZE-M DEB (TANK) 4.3 19:13:11 46° N 19:13:11 46° N 19:15:53 10° NE
Cosmos 2082 Rocket 3.2 19:20:33 34° NNW 19:20:33 34° NNW 19:23:58 10° N
SeaSat 1 2.9 19:15:06 10° SE 19:19:54 58° ENE 19:22:05 31° N
DELTA 2 R/B (1) 4.2 19:22:22 42° S 19:22:22 42° S 19:26:30 10° SE
FENGYUN 3A 3.5 19:18:40 10° NNE 19:24:08 86° WNW 19:24:19 83° SW
Cosmos 2221 4.1 19:23:40 10° SSE 19:27:39 35° E 19:31:39 10° NNE
Meteor 2-3 Rocket 3.6 19:23:43 10° N 19:29:27 86° W 19:35:12 10° S
Cosmos 1980 Rocket 2.3 19:27:05 16° NNW 19:31:46 77° ENE 19:37:26 10° SSE
H-2A R/B 2.7 19:28:16 10° SSE 19:32:34 56° ENE 19:36:48 10° N
Meteor 2-15 Rocket 4.3 19:28:32 12° S 19:34:17 85° W 19:40:28 10° N
NOSS 2-2 (D) 3.8 19:37:34 48° E 19:37:34 48° E 19:40:38 10° NE
Cosmos 1452 Rocket 3.4 19:39:41 65° W 19:39:59 66° WSW 19:45:11 10° S
Iridium 4 Rocket 3.5 19:44:12 57° W 19:44:12 57° W 19:49:05 10° N
Cosmos 1553 Rocket 3.9 19:38:14 10° S 19:44:38 75° W 19:51:01 10° N
Cosmos 1417 Rocket 4.4 19:39:51 10° S 19:46:02 85° W 19:52:20 10° N
H-2A R/B 3.6 19:36:43 28° WSW 19:47:06 66° S 19:52:14 10° E
METEOR-M 4.0 19:42:29 10° N 19:47:48 71° WNW 19:51:24 21° SSW
X-37B 3.3 19:49:56 13° N 19:49:56 13° N 19:51:05 10° NNE
ADEOS 3.5 19:46:58 10° NNE 19:52:13 89° ESE 19:57:26 10° SSW
ASTRO E2 4.3 19:53:18 22° S 19:54:18 24° SSE 19:57:34 10° ESE
Milstar 3 Cent rocket 3.7 19:52:47 16° SSW 19:55:05 22° SSE 19:59:08 10° ESE
Cosmos 1697 Rocket 4.0 19:58:18 22° SW 19:58:18 22° SW 20:00:37 10° SSW
Cosmos 1110 Rocket 4.1 19:51:52 10° NNW 19:57:10 78° ENE 20:02:23 10° SSE
SL-16 R/B 3.8 19:55:15 10° N 20:00:25 35° ENE 20:05:33 10° SE
ISS -1.6 20:05:21 16° N 20:05:21 16° N 20:06:49 10° NNE
Cosmos 2369 4.3 20:07:24 32° W 20:07:55 32° WSW 20:12:55 10° SSW
COSMO-SKYMED 1 3.1 20:03:41 10° SSE 20:07:57 61° ENE 20:12:14 10° N
ATLAS CENTAUR R/B 3.6 20:06:03 10° N 20:09:28 25° NE 20:13:02 10° ESE
IUS R/B (1) 3.4 20:10:44 17° S 20:10:49 18° S 20:12:49 10° SE
SL-27 R/B 2.8 20:12:20 10° S 20:15:44 64° ESE 20:19:14 10° NNE
CSL-04 DEB 4.4 20:13:30 10° SSE 20:17:38 88° ENE 20:21:41 10° NNW
CZ-4B R/B 1.5 20:15:38 10° SSE 20:18:53 72° ENE 20:22:04 10° N
CZ-4B R/B 3.2 20:16:37 10° NNE 20:21:02 83° ESE 20:25:32 10° S
Cosmos 1743 Rocket 4.0 20:18:06 10° N 20:22:34 66° E 20:27:00 10° SSE
Cosmos 1269 Rocket 4.1 20:18:44 10° SSW 20:23:52 54° WNW 20:29:03 10° N
NOSS 2-2 (C) 3.6 20:24:49 29° W 20:25:47 35° NW 20:29:06 10° NNE
S3M 4.1 20:21:43 10° SSW 20:27:32 47° W 20:33:25 10° N
Cosmos 1862 3.2 20:25:30 10° N 20:29:33 79° W 20:33:34 10° S
SKYMED 3 4.5 20:27:38 10° S 20:31:56 68° W 20:36:16 10° NNW
ERS-2 3.5 20:29:58 10° SE 20:33:24 41° ENE 20:36:50 10° N
ALOS 3.9 20:32:22 10° NNW 20:34:37 15° WNW 20:34:37 15° WNW
Meteor 1-31 Rocket 3.7 20:32:09 10° NNW 20:35:26 26° WNW 20:38:42 10° SW
Meteor 1-4 Rocket 2.9 20:34:30 10° SSW 20:38:04 43° W 20:41:38 10° N
Cosmos 1461 4.0 20:37:03 16° WNW 20:39:27 26° WSW 20:42:55 10° SSW
Cosmos 1606 2.6 20:38:17 10° S 20:42:08 77° W 20:46:02 10° N
Cosmos 1745 Rocket 4.2 20:36:40 10° NNW 20:42:36 46° W 20:48:34 10° SSW
MOS 1 Rocket 3.2 20:38:56 10° S 20:43:04 50° W 20:47:15 10° NNW
Alouette 2 Rocket 4.5 20:40:27 10° S 20:44:39 66° E 20:50:55 10° NNE
PSLV R/B 4.3 20:41:07 10° SSE 20:45:17 70° ENE 20:49:29 10° N
Cosmos 1408 Rocket 4.5 20:46:38 10° NNW 20:50:22 27° W 20:54:05 10° SSW
CREW DRAGON DEMO-1 DEB 3.9 20:52:55 10° NNW 20:55:37 38° NE 20:58:19 10° ESE
SKYMED 2 4.2 20:52:04 10° SSW 20:56:01 34° W 20:59:58 10° NNW
deb Chang Zheng 4 4.0 20:52:11 10° N 20:56:08 38° WNW 21:00:06 10° SW
Cosmos 1709 Rocket 4.0 20:49:52 10° NNW 20:56:09 66° W 21:02:28 10° S
SeaSat 1 4.0 20:54:56 10° SW 20:57:40 15° WSW 21:00:26 10° WNW
Meteosat 1 Rocket2 4.1 20:53:39 10° WSW 20:58:30 36° S 21:02:11 10° ESE
Cosmos 2360 Rocket 3.3 20:54:24 10° N 20:59:53 48° ENE 21:05:20 10° SE
SAR-Lupe-1 4.1 20:56:34 10° SSE 21:00:07 85° ENE 21:03:43 10° NNW
Cosmos 1500 Rocket 4.0 20:58:26 10° NNW 21:02:27 39° W 21:06:30 10° SSW
Cosmos 2221 4.1 21:02:38 10° WSW 21:05:17 16° WNW 21:07:57 10° NW
H-2A R/B 4.0 21:08:14 10° W 21:08:46 10° W 21:09:18 10° W
CZ-4B R/B 4.4 21:04:34 10° NNE 21:09:45 48° E 21:14:51 10° S
Envisat 3.2 21:05:08 10° N 21:10:01 49° WNW 21:14:53 10° SSW
Cosmos 2344 3.9 21:03:08 10° WSW 21:10:20 44° NW 21:17:38 10° NNE
Cosmos 2251 Rocket 3.5 21:06:22 10° SSW 21:11:40 78° WNW 21:17:01 10° NNE
